Location: La Pernelle
(49.6188°N, 1.2999°W)
Time: 11:06:01
(UTC+00:00)

Cosmos 1726 - Pass Details

Date: 12 June 2021
Orbit: 480 x 496 km, 82.5° (Epoch: 27 July)

Event Time Altitude Azimuth Distance (km) Brightness Sun altitude
Rises 22:09:22 0° 336° (NNW) 2,555 7.8 -12.8°
Reaches altitude 10° 22:11:54 10° 318° (NW) 1,668 6.1 -12.9°
Maximum altitude 22:14:30 19° 272° (W) 1,213 4.4 -13.1°
Drops below altitude 10° 22:17:06 10° 226° (SW) 1,657 4.6 -13.3°
Enters shadow 22:18:21 - 215° (SW) 2,066 5.0 -13.4°
